TimeMST,TemperatureF,Dew PointF,Humidity,Sea Level PressureIn,VisibilityMPH,Wind Direction,Wind SpeedMPH,Gust SpeedMPH,PrecipitationIn,Events,Conditions,WindDirDegrees,DateUTC
12:53 AM,9.0,5.0,84,30.48,10.0,West,8.1,-,N/A,,Clear,260,2013-02-16 07:53:00
1:53 AM,10.0,6.1,84,30.46,10.0,West,4.6,-,N/A,,Clear,280,2013-02-16 08:53:00
2:53 AM,10.9,6.1,81,30.44,10.0,West,8.1,-,N/A,,Clear,280,2013-02-16 09:53:00
3:53 AM,10.0,7.0,87,30.44,10.0,WNW,5.8,-,N/A,,Clear,300,2013-02-16 10:53:00
4:53 AM,7.0,3.0,84,30.44,10.0,West,6.9,-,N/A,,Clear,280,2013-02-16 11:53:00
5:53 AM,7.0,1.0,77,30.46,10.0,West,8.1,-,N/A,,Clear,270,2013-02-16 12:53:00
6:53 AM,5.0,-0.0,80,30.53,10.0,West,6.9,-,N/A,,Clear,260,2013-02-16 13:53:00
7:53 AM,7.0,-0.0,73,30.54,10.0,West,10.4,-,N/A,,Unknown,270,2013-02-16 14:53:00
8:53 AM,16.0,6.1,65,30.51,10.0,West,8.1,-,N/A,,Clear,270,2013-02-16 15:53:00
9:53 AM,28.9,10.9,47,30.43,10.0,Calm,Calm,-,N/A,,Clear,0,2013-02-16 16:53:00
10:53 AM,30.0,12.9,49,30.42,10.0,NNE,3.5,-,N/A,,Clear,30,2013-02-16 17:53:00
11:53 AM,37.9,12.9,36,30.37,10.0,Calm,Calm,-,N/A,,Clear,0,2013-02-16 18:53:00
12:53 PM,44.1,17.1,34,30.32,10.0,SE,3.5,-,N/A,,Clear,140,2013-02-16 19:53:00
1:53 PM,46.0,10.9,24,30.27,10.0,Calm,Calm,-,N/A,,Clear,0,2013-02-16 20:53:00
2:53 PM,46.9,9.0,21,30.23,10.0,SE,4.6,-,N/A,,Clear,130,2013-02-16 21:53:00
3:53 PM,44.1,17.1,34,30.22,10.0,SE,8.1,-,N/A,,Clear,130,2013-02-16 22:53:00
4:53 PM,42.1,19.9,41,30.25,10.0,SSE,10.4,-,N/A,,Clear,150,2013-02-16 23:53:00
5:53 PM,36.0,19.9,52,30.25,10.0,SE,11.5,-,N/A,,Clear,140,2013-02-17 00:53:00
6:53 PM,34.0,18.0,52,30.27,10.0,SE,11.5,-,N/A,,Clear,140,2013-02-17 01:53:00
7:53 PM,26.1,18.0,71,30.31,10.0,West,6.9,-,N/A,,Clear,260,2013-02-17 02:53:00
8:53 PM,21.0,14.0,74,30.27,10.0,West,9.2,-,N/A,,Clear,260,2013-02-17 03:53:00
9:53 PM,12.0,7.0,80,30.25,10.0,WSW,5.8,-,N/A,,Clear,240,2013-02-17 04:53:00
10:53 PM,12.0,7.0,80,30.21,10.0,WSW,8.1,-,N/A,,Clear,250,2013-02-17 05:53:00
11:53 PM,14.0,7.0,74,30.13,10.0,SW,5.8,-,N/A,,Clear,220,2013-02-17 06:53:00